Regional Weather Roundup
Issued by NWS

Home | Current Version | Previous Version | Graphics & Text | Print | Product List | Glossary On
Versions: 1 2 3 4 5 6 7 8 9 10 11 12 13 14 15 16 17 18 19 20 21 22 23 24 25 26 27 28 29 30 31 32 33 34 35 36 37 38 39 40 41 42 43 44 45 46 47 48 49 50
000
ASUS43 KMKX 271100
RWRWI

WISCONSIN REGIONAL WEATHER ROUNDUP
NATIONAL WEATHER SERVICE MILWAUKEE/SULLIVAN WI
500 AM CST TUE JAN 27 2015

NOTE: "FAIR" INDICATES FEW OR NO CLOUDS BELOW 12,000 FEET WITH NO
SIGNIFICANT WEATHER AND/OR OBSTRUCTIONS TO VISIBILITY.

WIZ001-002-006>008-014>016-023>028-271200-
NORTHWEST WISCONSIN

CITY           SKY/WX    TMP DP  RH WIND       PRES   REMARKS
SUPERIOR ARPT  CLOUDY    28  24  84 E3        30.10S
ASHLAND        CLOUDY    27  20  75 NW3       30.09R
HAYWARD        CLOUDY    26  22  84 N3        30.06R
SIREN          CLOUDY    29  22  75 N5        30.09R WCI  24
CUMBERLAND     CLOUDY    28  23  80 N8        30.06R WCI  20
RICE LAKE      CLOUDY    28  24  83 N5        30.08R WCI  23
CHETEK         CLOUDY    28  24  84 N6        30.07R WCI  21
LADYSMITH      CLOUDY    26  23  89 N3        30.07R
EAU CLAIRE     CLOUDY    27  22  81 NE5       30.08R WCI  22
MENOMONIE      CLOUDY    31  25  79 N8        30.07R WCI  23
NEW RICHMOND   CLOUDY    30  24  78 N8        30.08R WCI  23
OSCEOLA        CLOUDY    31  26  78 NE8       30.11R WCI  24
$$

WIZ003>005-009-010-017-018-271200-
NORTH CENTRAL WISCONSIN

CITY           SKY/WX    TMP DP  RH WIND       PRES   REMARKS
MANITOWISH WTR CLOUDY    19  18  96 CALM      30.03R
ARBOR VITAE    CLOUDY    22  19  91 CALM      30.03R
WOODRUFF       CLOUDY    22  19  91 CALM      30.03R
RHINELANDER    CLOUDY    20  17  88 CALM      30.03R
EAGLE RIVER    CLOUDY    20  16  86 E3        30.02R
LAND O LAKES   CLOUDY    20  18  93 E3        30.03S
PHILLIPS       CLOUDY    20  19  95 CALM      30.03R
TOMAHAWK       CLOUDY    20  18  93 CALM      30.04R
MEDFORD        CLOUDY    21  19  94 CALM      30.03R FOG
MERRILL        CLOUDY    21  19  93 CALM      30.04R
$$

WIZ029-030-035-036-043>047-271200-
CENTRAL WISCONSIN

CITY           SKY/WX    TMP DP  RH WIND       PRES   REMARKS
WAUSAU         CLOUDY    22  19  89 N3        30.04R
MOSINEE        CLOUDY    23  23 100 N3        30.04R
MARSHFIELD     CLOUDY    23  20  88 N7        30.05R FOG     WCI  15
STEVENS POINT  CLOUDY    21  19  94 N5        30.05R FOG     WCI  14
WAUPACA        CLOUDY    26  23  89 NE3       30.05R
WAUTOMA        NOT AVBL
WISC RAPIDS    CLOUDY    23  19  85 N7        30.07R WCI  15
CAMP DOUGLAS   CLOUDY    25  25 100 N6        30.05R WCI  18
$$

WIZ011>013-019>022-031-037>040-048>050-271200-
NORTHEAST WISCONSIN

CITY           SKY/WX    TMP DP  RH WIND       PRES   REMARKS
ANTIGO         CLOUDY    20  20  98 E6        30.03R FOG     WCI  12
SHAWANO        CLOUDY    24  21  87 NE3       30.07R
OCONTO         CLOUDY    22  20  93 CALM      30.09R
STURGEON BAY   CLOUDY    19  14  79 NE3       30.11R
GREEN BAY      CLOUDY    23  20  88 NE8       30.08R WCI  14
MANITOWOC      NOT AVBL
APPLETON       NOT AVBL
CLINTONVILLE   CLOUDY    23  21  93 NE3       30.06R
OSHKOSH        CLOUDY    25  20  81 NE5       30.05R WCI  19
$$

WIZ032>034-041-042-053>061-271200-
SOUTHWEST WISCONSIN

CITY           SKY/WX    TMP DP  RH WIND       PRES   REMARKS
LA CROSSE      CLOUDY    31  23  72 N6        30.08R WCI  25
SPARTA         CLOUDY    26  25  94 N5        30.07R WCI  21
VIROQUA        CLOUDY    27  24  86 N14       30.02R WCI  16
BOSCOBEL       CLOUDY    30  24  78 N6        30.06R WCI  24
PRAIRIE DU CHI CLOUDY    32  24  72 N3        30.06R
PLATTEVILLE    CLOUDY    29  27  91 N13       30.02R WCI  19
$$

WIZ056-057-062-063-064-067-068-271200-
SOUTH CENTRAL WISCONSIN

CITY           SKY/WX    TMP DP  RH WIND       PRES   REMARKS
REEDSBURG      CLOUDY    24  21  91 N8        30.04R WCI  14
BARABOO/DELLS  CLOUDY    23  21  92 N5        30.04R FOG     WCI  17
LONE ROCK      NOT AVBL
MINERAL POINT  CLOUDY    28  27  93 N10       30.01R WCI  19
MADISON        CLOUDY    25  22  88 N7        30.03R FOG     WCI  17
MIDDLETON      CLOUDY    26  24  91 N8        30.03R WCI  18
WATERTOWN      CLOUDY    24  24  98 N3        30.02R FOG
MONROE         CLOUDY    27  27 100 N6        30.00R FOG     WCI  20
JANESVILLE     CLOUDY    28  27  93 N5        30.01R WCI  23
$$

WIZ051-052-058>065-066-070>072-271200-
SOUTHEAST WISCONSIN

CITY           SKY/WX    TMP DP  RH WIND       PRES   REMARKS
MILWAUKEE      CLOUDY    28  21  75 E6        30.03R WCI  22
WAUKESHA       MIX PCPN  23  23 100 N3        30.02R
MILWAUKEE/TIMM CLOUDY    28  21  74 E3        30.03R
RACINE         CLOUDY    28  22  78 E9        30.04R WCI  19
BURLINGTON     CLOUDY    24  23  96 N5        30.01R FOG     WCI  18
KENOSHA        CLOUDY    27  23  85 N6        30.01R WCI  20
FOND DU LAC    CLOUDY    26  20  77 E5        30.04R WCI  20
SHEBOYGAN      CLOUDY    25  19  78 E6        30.05R WCI  18
WEST BEND      CLOUDY    27  23  86 NE6       30.02R WCI  20
JUNEAU         CLOUDY    24  21  91 N5        30.03R FOG     WCI  18
$$

LSZ147-162-271200-
LAKE SUPERIOR

STATION/POSITION TIME  TEMP    WIND        PRES    WAVE
                       AIR SEA DIR/SP/G            HT/PER
                 (UTC) (F)     (DEG/KT/KT) (MB)    (FT/S)
DEVILS ISLAND    1000   29     340/ 14/ 18 1019.6R
PORT WING        1000   29     360/  8/ 11 1019.0R
SAXON HARBOR     1000   25        CALM     1017.9R
$$

LMZ867-665-643>646-271200-
LAKE MICHIGAN

STATION/POSITION TIME  TEMP    WIND        PRES    WAVE
                       AIR SEA DIR/SP/G            HT/PER
                 (UTC) (F)     (DEG/KT/KT) (MB)    (FT/S)
NORTHPORT PIER   1024   23      70/  4/  9 1019.3R
SISTER BAY       1013   22        CALM       N/A
KEWAUNEE LAKESHO 1000   25      80/  4/  9 1017.1R
SHEBOYGAN LAKESH 1000   26      80/  7/  9 1018.4R
PORT WASHINGTON  1040   29      80/  8/ 11 1018.3R
KENOSHA   LAKESH 1000   27     310/  4/  7 1015.9R
$$

TC  - TEMPERATURE IN CELSIUS
VSB - VISIBILITY IN STATUTE MILES
WCI - WIND CHILL INDEX
HX  - HEAT INDEX




USA.gov is the U.S. government's official web portal to all federal, state and local government web resources and services.